Alturas, CA

3:50 AM PDT on June 25, 2017 (GMT -0700)
Alturas Municipal

Weather History for KAAT - April, 2013

Change the Weather History Date:

Thursday, April 4, 2013

  Actual Average Record
Temperature  
Mean Temperature 48 °F 41 °F  
Max Temperature 56 °F 55 °F 79 °F (1934)
Min Temperature 40 °F 26 °F 10 °F (2009)
Degree Days  
Heating Degree Days 17 24  
Month to date heating degree days 70 99  
Since 1 July heating degree days 5423 5791  
Moisture  
Dew Point 40 °F    
Average Humidity 70    
Maximum Humidity 89    
Minimum Humidity 51    
Precipitation  
Precipitation 0.17 in 0.05 in 0.36 in (1935)
Month to date precipitation 0.54 0.19  
Year to date precipitation 1.59 4.81  
Sea Level Pressure  
Sea Level Pressure 29.94 in    
Wind  
Wind Speed 8 mph (SW)    
Max Wind Speed 25 mph    
Max Gust Speed 31 mph    
Visibility 10 miles    
Events Rain    
T = Trace of Precipitation, MM = Missing Value Source: NWS Daily Summary

Daily Weather History Graph

Daily Weather History Graph

Search for Another Location

Airport or City:

Trip Planner

Search our weather history database for the weather conditions in past years. The results will help you decide how hot, cold, wet, or windy it might be!

Date:

Astronomy

Apr. 04, 2013 Rise Set
Actual Time 6:39 AM PDT 7:31 PM PDT
Civil Twilight 6:11 AM PDT 7:59 PM PDT
Nautical Twilight 5:38 AM PDT 8:32 PM PDT
Astronomical Twilight 5:03 AM PDT 9:07 PM PDT
Moon 3:14 AM PDT (4/4) 1:51 PM PDT (4/4)
Length of Visible Light 13h 47m
Length of Day
12h 51m
Waning Crescent, 32% of the Moon is Illuminated
Apr 4
Waning Crescent
Apr 10
New
Apr 18
First Quarter
Apr 25
Full
May 2
Last Quarter

Hourly Weather History & Observations

Time (PDT) Temp. Windchill Dew Point Humidity Pressure Visibility Wind Dir Wind Speed Gust Speed Precip Events Conditions
12:55 AM 43.0 °F - 39.0 °F 86% 29.97 in 10.0 mi Calm Calm - N/A   Clear
1:55 AM 41.0 °F - 37.9 °F 89% 29.95 in 10.0 mi Calm Calm - N/A   Mostly Cloudy
2:55 AM 42.1 °F - 37.9 °F 85% 29.92 in 10.0 mi Calm Calm - N/A   Mostly Cloudy
3:55 AM 43.0 °F - 39.0 °F 86% 29.92 in 10.0 mi Calm Calm - N/A   Mostly Cloudy
4:55 AM 44.1 °F 41.5 °F 39.0 °F 82% 29.89 in 10.0 mi NE 4.6 mph - N/A   Overcast
5:55 AM 46.0 °F - 37.9 °F 73% 29.88 in 10.0 mi Calm Calm - N/A   Overcast
6:55 AM 46.0 °F 44.8 °F 37.9 °F 73% 29.87 in 10.0 mi SSW 3.5 mph - N/A   Overcast
7:55 AM 50.0 °F - 37.9 °F 63% 29.88 in 10.0 mi South 8.1 mph - N/A   Overcast
8:55 AM 51.1 °F - 37.9 °F 61% 29.90 in 10.0 mi South 6.9 mph - 0.00 in Rain Light Rain
9:55 AM 48.9 °F - 41.0 °F 74% 29.94 in 10.0 mi SSW 21.9 mph 27.6 mph 0.01 in Rain Light Rain
10:55 AM 48.0 °F - 44.1 °F 86% 29.96 in 10.0 mi SW 8.1 mph - 0.00 in   Overcast
11:55 AM 55.0 °F - 39.9 °F 57% 29.93 in 10.0 mi South 15.0 mph 25.3 mph N/A   Overcast
12:55 PM 55.0 °F - 37.9 °F 53% 29.92 in 10.0 mi SSW 12.7 mph - N/A   Overcast
1:55 PM 50.0 °F - 44.1 °F 80% 29.94 in 6.0 mi SW 13.8 mph 26.5 mph 0.03 in Rain Light Rain
2:55 PM 51.1 °F - 45.0 °F 80% 29.92 in 10.0 mi South 9.2 mph - 0.02 in Rain Light Rain
3:55 PM 50.0 °F - 44.1 °F 80% 29.93 in 10.0 mi Variable 3.5 mph - 0.01 in   Overcast
4:55 PM 55.0 °F - 41.0 °F 59% 29.91 in 10.0 mi WSW 19.6 mph 25.3 mph N/A   Clear
5:55 PM 53.1 °F - 39.0 °F 59% 29.91 in 10.0 mi West 16.1 mph - N/A   Mostly Cloudy
6:55 PM 50.0 °F - 37.9 °F 63% 29.92 in 10.0 mi SW 9.2 mph 19.6 mph N/A   Partly Cloudy
7:55 PM 46.9 °F - 37.9 °F 71% 29.92 in 10.0 mi WNW 5.8 mph - N/A   Mostly Cloudy
8:55 PM 45.0 °F 42.6 °F 37.9 °F 76% 29.96 in 10.0 mi South 4.6 mph - 0.00 in   Overcast
9:55 PM 43.0 °F 37.2 °F 39.9 °F 89% 29.99 in 9.0 mi SSW 10.4 mph - 0.02 in Rain Light Rain
10:55 PM 44.1 °F 36.5 °F 39.0 °F 82% 30.01 in 9.0 mi SW 17.3 mph 26.5 mph 0.03 in Rain Rain
11:10 PM 39.2 °F 35.0 °F 39.2 °F 100% 30.03 in 6.0 mi WSW 5.8 mph - 0.03 in Rain Rain
11:19 PM 41.0 °F 38.0 °F 39.2 °F 93% 30.02 in 10.0 mi West 4.6 mph - 0.04 in Rain Light Rain
11:55 PM 39.9 °F 35.1 °F 39.0 °F 97% 30.00 in 10.0 mi WSW 6.9 mph - 0.04 in   Mostly Cloudy